Weather History for Harbor Springs, MI

Change the Weather History Date:

Tuesday, July 30, 2013

  Actual Average (KPLN) Record (KPLN)
Temperature  
Mean Temperature 64 °F -  
Max Temperature 72 °F 78 °F 93 °F (1999)
Min Temperature 57 °F 52 °F 33 °F (1965)
Growing Degree Days 14 (Base 50)    
Moisture  
Dew Point 58 °F    
Average Humidity 81    
Maximum Humidity 96    
Minimum Humidity 59    
Precipitation  
Precipitation 0.00 in - - ()
Sea Level Pressure  
Sea Level Pressure 30.17 in    
Wind  
Wind Speed 1 mph (SW)    
Max Wind Speed 8 mph    
Max Gust Speed -    
Visibility 10 miles    
Events      
Averages and records for this station are not official NWS values.
T = Trace of Precipitation, MM = Missing Value Source: NWS Daily Summary

Daily Weather History Graph

Daily Weather History Graph

Search for Another Location

Airport:

Trip Planner

Search our weather history database for the weather conditions in past years. The results will help you decide how hot, cold, wet, or windy it might be!

Date:

Astronomy

Jul. 30, 2013 Rise Set
Actual Time 6:21 AM EDT 9:09 PM EDT
Civil Twilight 5:47 AM EDT 9:43 PM EDT
Nautical Twilight 5:03 AM EDT 10:27 PM EDT
Astronomical Twilight 4:12 AM EDT 11:17 PM EDT
Moon 12:41 AM EDT (7/30) 3:27 PM EDT (7/30)
Length of Visible Light 15h 56m
Length of Day
14h 47m
Last Quarter, 41% of the Moon is Illuminated
Jul 30
Last Quarter
Aug 6
New
Aug 14
First Quarter
Aug 20
Full
Aug 28
Last Quarter

Hourly Weather History & Observations

Time (EDT) Temp. Dew Point Humidity Pressure Visibility Wind Dir Wind Speed Gust Speed Precip Events Conditions
12:15 AM 60.8 °F 58.1 °F 91% 30.17 in 10.0 mi Calm Calm - N/A   Clear
12:34 AM 58.5 °F 56.7 °F 94% 30.17 in 10.0 mi Calm Calm - N/A   Clear
12:55 AM 57.7 °F 56.1 °F 94% 30.17 in 10.0 mi Calm Calm - N/A   Clear
1:15 AM 57.4 °F 55.6 °F 94% 30.17 in 10.0 mi Calm Calm - N/A   Scattered Clouds
1:34 AM 57.4 °F 55.6 °F 94% 30.18 in 10.0 mi Calm Calm - N/A   Scattered Clouds
1:55 AM 57.4 °F 55.8 °F 94% 30.18 in 10.0 mi Calm Calm - N/A   Scattered Clouds
2:14 AM 57.2 °F 55.6 °F 94% 30.18 in 10.0 mi Calm Calm - N/A   Scattered Clouds
2:35 AM 57.6 °F 56.1 °F 95% 30.18 in 10.0 mi Calm Calm - N/A   Mostly Cloudy
2:55 AM 57.4 °F 55.9 °F 95% 30.17 in 10.0 mi Calm Calm - N/A   Scattered Clouds
3:14 AM 57.4 °F 55.9 °F 95% 30.17 in 10.0 mi Calm Calm - N/A   Mostly Cloudy
3:35 AM 57.4 °F 56.1 °F 96% 30.18 in 10.0 mi Calm Calm - N/A   Mostly Cloudy
3:55 AM 57.4 °F 56.3 °F 96% 30.17 in 10.0 mi Calm Calm - N/A   Mostly Cloudy
4:14 AM 57.4 °F 55.9 °F 95% 30.18 in 10.0 mi Calm Calm - N/A   Mostly Cloudy
4:35 AM 57.4 °F 56.1 °F 96% 30.17 in 10.0 mi Calm Calm - N/A   Overcast
4:55 AM 57.4 °F 55.9 °F 95% 30.17 in 10.0 mi Calm Calm - N/A   Overcast
5:15 AM 57.4 °F 55.9 °F 95% 30.18 in 10.0 mi Calm Calm - N/A   Overcast
5:35 AM 57.4 °F 55.6 °F 94% 30.18 in 10.0 mi Calm Calm - N/A   Overcast
5:55 AM 57.4 °F 55.8 °F 94% 30.19 in 10.0 mi SSW 3.5 mph - N/A   Overcast
6:14 AM 57.4 °F 55.8 °F 94% 30.19 in 10.0 mi Calm Calm - N/A   Mostly Cloudy
6:35 AM 57.2 °F 55.8 °F 95% 30.19 in 10.0 mi Calm Calm - N/A   Scattered Clouds
6:55 AM 57.4 °F 55.8 °F 94% 30.20 in 10.0 mi Calm Calm - N/A   Mostly Cloudy
7:14 AM 57.4 °F 55.4 °F 93% 30.20 in 10.0 mi Calm Calm - N/A   Mostly Cloudy
7:35 AM 58.5 °F 56.1 °F 92% 30.21 in 10.0 mi Calm Calm - N/A   Clear
7:55 AM 57.4 °F 55.2 °F 92% 30.21 in 10.0 mi Calm Calm - N/A   Clear
8:14 AM 59.9 °F 57.4 °F 91% 30.21 in 10.0 mi Calm Calm - N/A   Clear
8:35 AM 60.3 °F 56.5 °F 87% 30.21 in 10.0 mi Calm Calm - N/A   Clear
8:55 AM 61.3 °F 56.5 °F 84% 30.22 in 10.0 mi South 3.5 mph - N/A   Scattered Clouds
9:14 AM 62.6 °F 57.0 °F 82% 30.21 in 10.0 mi Calm Calm - N/A   Scattered Clouds
9:35 AM 63.7 °F 57.6 °F 80% 30.21 in 10.0 mi SW 3.5 mph - N/A   Mostly Cloudy
9:55 AM 65.3 °F 57.7 °F 76% 30.21 in 10.0 mi SW 4.6 mph - N/A   Scattered Clouds
10:15 AM 67.5 °F 59.0 °F 74% 30.21 in 10.0 mi SW 4.6 mph - N/A   Mostly Cloudy
10:35 AM 67.5 °F 59.2 °F 75% 30.21 in 10.0 mi West 3.5 mph - N/A   Scattered Clouds
10:55 AM 65.1 °F 56.5 °F 74% 30.21 in 10.0 mi SW 4.6 mph - N/A   Clear
11:15 AM 67.8 °F 58.3 °F 71% 30.20 in 10.0 mi West 3.5 mph - N/A   Clear
11:35 AM 70.0 °F 58.8 °F 68% 30.21 in 10.0 mi WSW 4.6 mph - N/A   Clear
11:55 AM 69.6 °F 60.1 °F 72% 30.21 in 10.0 mi Calm Calm - N/A   Scattered Clouds
12:15 PM 67.5 °F 59.2 °F 75% 30.21 in 10.0 mi SW 3.5 mph - N/A   Scattered Clouds
12:35 PM 66.4 °F 58.5 °F 76% 30.23 in 10.0 mi SW 8.1 mph - N/A   Mostly Cloudy
12:55 PM 64.9 °F 57.2 °F 76% 30.21 in 10.0 mi SW 5.8 mph - N/A   Overcast
1:15 PM 66.7 °F 58.5 °F 75% 30.21 in 10.0 mi SSW 3.5 mph - N/A   Scattered Clouds
1:35 PM 64.9 °F 57.2 °F 76% 30.19 in 10.0 mi Calm Calm - N/A   Mostly Cloudy
1:55 PM 63.0 °F 57.4 °F 82% 30.20 in 10.0 mi SSW 5.8 mph - N/A   Light Drizzle
2:15 PM 64.9 °F 59.2 °F 82% 30.20 in 10.0 mi SSW 3.5 mph - N/A   Overcast
2:35 PM 68.5 °F 60.6 °F 76% 30.19 in 10.0 mi SW 4.6 mph - N/A   Scattered Clouds
2:55 PM 68.4 °F 60.6 °F 76% 30.19 in 10.0 mi WSW 5.8 mph - N/A   Scattered Clouds
3:15 PM 70.0 °F 60.4 °F 72% 30.19 in 10.0 mi SW 3.5 mph - N/A   Clear
3:35 PM 70.0 °F 60.1 °F 71% 30.18 in 10.0 mi SW 6.9 mph - N/A   Clear
3:55 PM 70.0 °F 57.0 °F 63% 30.17 in 10.0 mi West 4.6 mph - N/A   Scattered Clouds
4:15 PM 71.6 °F 57.7 °F 62% 30.17 in 10.0 mi West 4.6 mph - N/A   Overcast
4:35 PM 71.1 °F 57.2 °F 61% 30.16 in 10.0 mi SW 6.9 mph - N/A   Scattered Clouds
4:55 PM 71.6 °F 56.7 °F 59% 30.15 in 10.0 mi WSW 4.6 mph - N/A   Clear
5:15 PM 72.1 °F 58.5 °F 62% 30.15 in 10.0 mi SW 5.8 mph - N/A   Clear
5:35 PM 72.5 °F 57.6 °F 59% 30.15 in 10.0 mi WSW 4.6 mph - N/A   Clear
5:55 PM 71.6 °F 57.6 °F 61% 30.14 in 10.0 mi SW 3.5 mph - N/A   Clear
6:15 PM 72.5 °F 58.3 °F 61% 30.14 in 10.0 mi WSW 4.6 mph - N/A   Clear
6:35 PM 72.5 °F 58.8 °F 62% 30.14 in 10.0 mi Calm Calm - N/A   Clear
6:54 PM 72.3 °F 58.5 °F 62% 30.14 in 10.0 mi SW 3.5 mph - N/A   Clear
7:15 PM 70.3 °F 57.2 °F 63% 30.14 in 10.0 mi WSW 3.5 mph - N/A   Clear
7:35 PM 70.0 °F 58.6 °F 67% 30.14 in 10.0 mi SW 3.5 mph - N/A   Clear
7:54 PM 70.0 °F 59.2 °F 68% 30.13 in 10.0 mi SW 3.5 mph - N/A   Clear
8:15 PM 70.0 °F 59.7 °F 70% 30.13 in 10.0 mi SW 3.5 mph - N/A   Clear
8:35 PM 67.6 °F 59.2 °F 74% 30.13 in 10.0 mi Calm Calm - N/A   Clear
8:54 PM 66.9 °F 59.5 °F 77% 30.12 in 10.0 mi Calm Calm - N/A   Clear
9:15 PM 64.9 °F 58.8 °F 81% 30.12 in 10.0 mi Calm Calm - N/A   Mostly Cloudy
9:35 PM 64.9 °F 59.4 °F 82% 30.12 in 10.0 mi Calm Calm - N/A   Overcast
9:55 PM 64.9 °F 59.9 °F 84% 30.12 in 10.0 mi Calm Calm - N/A   Overcast
10:15 PM 64.2 °F 59.2 °F 84% 30.13 in 10.0 mi Calm Calm - N/A   Overcast
10:35 PM 63.9 °F 59.2 °F 85% 30.12 in 10.0 mi Calm Calm - N/A   Overcast
10:55 PM 63.0 °F 58.8 °F 86% 30.12 in 10.0 mi Calm Calm - N/A   Overcast
11:15 PM 61.9 °F 58.3 °F 88% 30.12 in 10.0 mi ENE 4.6 mph - N/A   Mostly Cloudy
11:35 PM 61.9 °F 58.3 °F 88% 30.12 in 10.0 mi NE 4.6 mph - N/A   Scattered Clouds
11:55 PM 61.2 °F 57.9 °F 89% 30.11 in 10.0 mi ENE 4.6 mph - N/A   Clear